Regional Weather Roundup
Issued by NWS

Home | Current Version | Previous Version | Text Only | Print | Product List | Glossary On
Versions: 1 2 3 4 5 6 7 8 9 10 11 12 13 14 15 16 17 18 19 20 21 22 23 24 25 26 27 28 29 30 31 32 33 34 35 36 37 38 39 40 41 42 43 44 45 46 47 48 49 50
000
ASUS44 KOUN 200310
RWROK

WEATHER ROUNDUP FOR OKLAHOMA
NATIONAL WEATHER SERVICE NORMAN OK
1000 PM CDT SAT AUG 19 2017

NOTE: "FAIR" INDICATES FEW OR NO CLOUDS BELOW 12,000 FEET WITH NO
      SIGNIFICANT WEATHER AND/OR OBSTRUCTIONS TO VISIBILITY.

OKZ001>007-009>012-014-015-017-200400-
NORTHWEST OKLAHOMA AND THE PANHANDLE

CITY           SKY/WX    TMP DP  RH WIND       PRES   REMARKS
GAGE           CLOUDY    83  67  58 S15       29.96R
GUYMON         CLOUDY    78  66  66 SW8       29.97R
$$

OKZ016-021>023-033>039-044-045-200400-
SOUTHWEST OKLAHOMA

CITY           SKY/WX    TMP DP  RH WIND       PRES   REMARKS
LAWTON/REGL    CLOUDY    79  73  82 CALM      29.96R
LAWTON/FT SILL CLOUDY    79  73  80 S6        29.95R
FREDERICK      PTCLDY    78  70  76 E7        29.93R
CLINTON        PTCLDY    81  67  62 S15       29.99R
HOBART         CLEAR     80  68  66 SW7       29.97R
ALTUS AFB      CLEAR     77  67  69 CALM      29.95R
$$

OKZ018>020-024>031-200400-
CENTRAL OKLAHOMA

CITY           SKY/WX    TMP DP  RH WIND       PRES   REMARKS
OKLAHOMA CITY  PTCLDY    78  72  81 S6        29.96R
OKC/WILEY POST CLEAR     83  72  69 S9        29.96R
OKC/TINKER AFB CLEAR     81  72  73 S9        29.96R
STILLWATER     PTCLDY    84  73  69 S9        29.92R HX  90
GUTHRIE        CLEAR     83  73  72 S8        29.94R
$$

OKZ008-013-054>072-200400-
NORTHEAST OKLAHOMA

CITY           SKY/WX    TMP DP  RH WIND       PRES   REMARKS
TULSA          PTCLDY    89  75  63 S9        29.91R HX  99
TULSA/JONES    CLEAR     88  75  65 S7        29.92R HX  97
PONCA CITY     CLOUDY    88  73  61 S8        29.90R HX  95
BARTLESVILLE   CLOUDY    82  77  84 S3        29.93R HX  90
MUSKOGEE       CLEAR     82  78  88 SE6       29.95R HX  91
$$

OKZ032-040>043-046>053-073>077-200400-
SOUTH CENTRAL/SOUTHEAST OKLAHOMA

CITY           SKY/WX    TMP DP  RH WIND       PRES   REMARKS
ARDMORE/DWNTWN PTCLDY    79  73  83 CALM      29.96R
MCALESTER      CLEAR     85  77  77 SE3       29.96R HX  95
$$





USA.gov is the U.S. government's official web portal to all federal, state and local government web resources and services.